Location: Waldport
(44.4270°N, 124.0680°W)
Time: 07:00:06
(UTC-07:00)

CENTAUR R/B - Pass Details

Date: 23 June 2018
Orbit: 804 x 1384 km, 63.5° (Epoch: 29 June)

Event Time Altitude Azimuth Distance (km) Brightness Sun altitude
Rises 21:48:01 0° 321° (NW) 4,003 8.0 -6.9°
Reaches altitude 10° 21:50:59 10° 331° (NNW) 3,128 6.6 -7.2°
Maximum altitude 21:57:45 33° 34° (NNE) 2,040 4.3 -8.1°
Drops below altitude 10° 22:05:06 10° 95° (E) 3,413 4.9 -9.0°
Enters shadow 22:07:22 - 102° (ESE) 4,079 5.2 -9.3°
